Wind_Speed
19 20 20 21 22 22 23 23 23 24 24 25 24 23 23 24 24 25 26 26 27 27 27 27 27 27 28 28 28 28 28 27 27 27 26 26 26 26 26 26 26 26 26
20 21 22 22 23 23 23 24 24 24 24 23 23 22 22 23 25 26 26 26 27 27 27 27 27 28 28 28 28 28 27 27 27 27 25 25 25 25 25 25 25 25 25
20 21 22 22 23 23 24 24 25 25 24 23 23 23 23 24 25 25 26 26 26 26 27 27 27 28 28 28 27 27 26 26 27 26 25 24 24 24 25 24 25 25 25
20 21 21 21 22 23 23 24 25 25 23 23 23 22 23 24 24 26 27 26 26 26 27 27 28 27 27 27 27 26 26 26 25 24 24 24 24 24 23 24 25 25 25
20 20 21 21 22 23 23 23 24 24 23 23 23 22 23 24 24 24 25 25 26 27 27 28 27 27 26 26 26 25 25 25 24 24 24 25 25 24 24 24 25 25 25
20 20 21 21 22 23 23 24 23 23 23 23 23 24 24 23 24 24 24 25 26 27 27 28 27 27 26 26 25 24 24 24 23 23 23 23 24 24 24 24 25 25 25
20 20 21 21 22 22 22 23 23 23 23 23 24 25 25 24 25 25 27 27 27 27 26 26 26 26 25 25 24 24 24 23 23 23 23 23 23 23 24 24 24 24 25
20 20 21 21 21 21 22 23 23 22 23 24 25 26 26 25 25 26 27 27 27 26 25 25 25 25 25 24 24 23 24 23 23 23 23 23 22 23 23 24 24 24 25
20 20 21 21 21 22 23 23 23 24 24 24 25 25 25 25 25 24 25 26 25 24 24 24 24 24 24 23 23 22 22 22 22 22 22 22 22 21 22 23 23 24 25
20 20 20 20 21 21 22 23 24 24 24 23 23 24 24 24 23 23 24 24 24 23 23 23 24 24 24 23 22 22 22 21 21 21 21 22 21 21 21 22 22 23 23
20 20 20 20 21 22 22 23 23 22 21 21 22 22 22 22 23 24 24 24 22 22 22 22 23 23 22 22 21 21 21 21 21 21 21 22 21 22 22 22 22 23 23
20 20 21 21 21 22 22 23 23 21 21 21 22 22 21 21 22 23 23 22 21 21 22 22 22 22 21 21 20 20 21 21 21 21 21 21 22 22 22 21 22 22 22
20 21 22 22 22 23 23 23 22 21 21 21 21 21 21 21 20 21 21 21 21 21 21 22 22 21 21 20 19 20 20 21 20 20 21 22 22 22 22 21 21 21 21
21 21 22 23 23 23 23 23 22 22 22 21 21 21 21 20 20 20 20 20 20 20 20 21 21 22 20 20 20 20 21 21 20 20 21 21 22 22 21 20 20 20 20
21 22 22 22 22 22 23 23 21 21 22 21 20 20 20 20 19 19 20 19 19 20 20 21 21 21 21 20 21 21 21 20 20 21 21 21 21 22 21 20 19 20 20
21 22 22 22 22 22 22 22 21 21 21 21 20 20 19 19 18 18 19 19 20 21 21 21 21 22 21 21 22 22 21 21 21 20 21 21 21 21 20 20 20 21 21
22 22 21 23 23 23 22 21 21 20 20 20 19 19 19 18 18 19 19 19 20 20 21 21 22 22 21 21 21 21 21 21 20 20 20 20 20 20 20 20 21 21 21
23 23 23 23 23 22 22 21 21 20 20 19 19 19 19 19 19 19 19 19 20 20 21 21 21 21 21 21 21 20 20 20 20 20 20 20 20 21 20 20 20 20 20
23 23 23 23 23 22 21 21 20 20 20 20 19 18 18 18 18 18 19 19 19 19 19 18 18 19 19 20 20 19 19 19 19 19 20 20 20 20 20 20 19 19 20
23 23 23 22 22 21 20 21 20 20 20 20 19 18 18 18 18 17 17 18 18 17 17 16 17 18 18 18 18 18 18 18 19 19 19 19 19 19 19 19 19 20 20
23 23 22 22 21 21 21 20 20 20 20 19 18 17 17 17 17 16 16 16 16 16 16 16 17 17 17 18 17 18 18 18 19 19 19 18 18 17 17 18 18 19 19
22 22 22 22 22 21 21 21 20 19 19 18 17 17 17 17 16 15 15 15 15 15 16 16 16 16 18 17 17 17 18 18 19 18 18 17 17 17 17 17 17 18 18
23 22 21 21 20 20 20 20 19 18 17 16 16 16 16 15 15 15 14 14 15 15 15 16 16 16 17 17 17 17 18 18 18 18 17 17 17 17 17 17 17 17 17
22 21 20 20 19 19 19 19 18 17 16 16 15 14 14 14 14 14 14 15 15 15 15 16 16 16 16 16 17 17 17 17 17 16 16 16 16 16 17 17 17 17 17
21 20 19 19 18 18 18 17 16 16 15 14 14 13 13 14 14 14 15 15 15 16 17 16 16 16 16 17 17 16 16 17 16 16 16 17 16 16 17 17 16 17 17
19 18 17 17 16 17 17 16 16 15 14 14 14 13 13 13 13 14 14 14 15 15 16 16 16 16 16 17 17 16 16 16 15 16 16 16 16 16 16 17 16 17 17
Wind_Direction
287 285 286 287 289 290 290 291 292 292 292 293 290 288 287 289 288 286 287 289 289 290 292 292 291 292 292 292 290 288 288 288 288 288 287 285 284 282 279 278 278 276 273
289 288 288 288 290 290 291 291 292 293 295 294 292 290 292 292 290 287 288 290 290 290 292 291 292 293 294 293 291 287 287 287 287 286 286 284 283 282 281 279 278 277 275
290 289 289 289 289 291 292 291 292 292 293 293 293 294 294 293 288 287 288 288 290 293 292 292 293 293 294 293 291 288 287 288 287 285 285 284 282 281 280 279 279 278 276
292 290 291 291 292 293 293 294 294 293 291 292 292 293 293 293 291 290 288 288 291 293 294 293 293 293 293 293 291 288 288 287 286 286 285 284 282 281 279 279 279 279 277
297 294 292 292 293 294 295 296 295 295 295 294 291 291 291 292 293 294 292 292 292 293 295 294 294 293 293 293 291 288 288 289 288 286 285 283 282 281 279 278 279 280 278
300 295 294 295 295 295 295 296 297 297 296 294 293 291 291 293 295 296 297 297 296 296 295 294 294 294 294 294 292 290 290 290 290 288 286 285 282 279 278 278 278 278 278
301 298 298 297 298 298 298 298 300 298 297 294 294 294 294 295 297 299 299 299 298 297 298 298 297 295 295 295 293 291 290 289 288 288 286 286 283 280 279 279 277 277 277
301 299 299 297 298 298 299 300 300 299 297 295 295 295 297 297 298 299 299 299 298 298 299 299 299 298 297 295 292 291 290 288 287 287 287 286 285 283 281 280 278 278 278
301 300 300 299 300 299 299 301 301 301 302 300 298 299 299 297 297 297 299 299 298 299 299 300 301 301 299 296 293 292 291 289 287 287 287 287 286 285 284 282 280 280 279
303 302 301 300 302 302 302 303 305 305 305 303 302 301 299 297 297 298 300 299 299 300 302 303 303 302 300 297 294 292 291 290 289 290 290 288 287 287 285 283 282 282 281
306 306 306 304 304 306 306 304 306 305 304 306 307 306 302 299 297 299 301 303 302 303 304 303 304 303 303 300 297 296 294 292 290 290 290 289 289 288 287 284 282 282 281
310 310 310 307 307 308 308 307 308 305 307 309 310 309 307 305 303 302 302 304 304 304 305 305 306 305 304 302 301 298 298 297 293 291 290 292 291 290 287 284 283 282 282
312 311 312 310 309 310 310 310 309 308 311 311 310 309 307 307 305 304 305 307 306 306 306 306 306 306 305 303 301 300 300 301 298 295 293 293 293 292 290 287 285 284 284
313 314 313 311 310 310 311 311 308 309 311 310 309 308 308 308 305 303 304 306 308 308 307 306 306 306 303 304 303 303 302 301 299 297 294 293 293 293 291 289 287 287 287
314 314 314 313 312 311 312 313 312 310 310 310 307 307 308 310 307 305 305 305 306 307 306 307 308 308 305 304 307 306 306 303 301 300 297 296 294 295 293 291 289 288 287
315 315 314 314 314 313 313 314 312 310 310 309 308 308 310 311 309 309 308 307 306 305 306 306 307 307 307 305 305 307 307 303 302 301 299 297 295 295 294 293 292 290 289
314 316 316 316 316 316 315 315 314 313 313 312 311 310 310 310 309 309 307 308 307 306 306 305 306 306 307 307 309 308 306 305 302 301 300 299 297 297 296 295 295 291 290
312 314 315 315 315 315 315 315 315 316 316 315 315 314 313 312 310 310 309 309 309 309 307 305 305 306 308 308 310 310 309 307 306 304 303 301 299 300 298 299 296 293 291
311 312 313 314 315 315 316 317 318 318 316 316 316 316 316 315 313 313 314 314 313 312 312 310 309 310 312 312 312 313 311 311 310 309 307 305 303 302 300 299 297 297 296
311 312 313 313 315 317 318 319 319 317 316 316 316 316 316 316 316 316 317 318 317 317 316 315 313 314 316 316 314 313 314 314 314 313 313 311 308 306 303 301 299 298 297
311 312 313 313 314 317 318 319 318 318 317 317 317 318 318 317 318 318 320 321 322 322 322 320 319 319 320 319 317 317 317 317 316 315 315 313 312 311 309 306 303 301 298
311 311 312 312 314 316 318 320 319 319 318 318 318 319 319 319 321 323 325 327 327 326 326 325 324 324 323 321 322 321 320 319 317 316 316 315 313 313 314 311 307 305 301
311 311 311 312 314 316 318 320 321 321 322 322 322 321 320 321 324 327 330 330 328 328 328 328 326 326 325 325 323 322 321 322 322 320 319 318 318 316 316 316 315 313 309
311 308 308 309 312 316 319 320 321 321 321 323 324 322 322 323 326 330 332 332 330 330 330 331 332 331 331 329 329 327 325 324 324 324 324 324 324 325 323 322 320 318 317
311 309 306 307 310 315 318 321 323 322 322 325 326 325 325 326 327 329 331 331 332 332 331 332 335 334 333 334 335 334 333 332 331 331 331 332 332 333 333 331 327 325 323
312 310 307 307 311 314 316 318 320 322 324 325 324 325 327 327 328 331 334 334 335 337 338 337 337 338 338 337 338 339 340 339 339 337 334 336 337 336 335 333 330 328 326
Height
5846 5845 5844 5842 5841 5840 5838 5837 5835 5833 5831 5828 5826 5825 5823 5821 5819 5817 5814 5812 5810 5808 5805 5803 5801 5798 5796 5793 5791 5788 5786 5784 5782 5780 5777 5776 5774 5773 5772 5772 5771 5770 5769
5842 5840 5839 5838 5836 5835 5833 5831 5829 5827 5825 5823 5821 5819 5817 5815 5813 5811 5808 5807 5804 5802 5799 5797 5795 5792 5789 5786 5783 5781 5779 5777 5775 5773 5771 5770 5769 5767 5766 5765 5764 5763 5763
5838 5836 5834 5832 5831 5829 5828 5826 5824 5822 5820 5818 5816 5813 5811 5809 5807 5805 5803 5801 5798 5796 5794 5791 5788 5785 5782 5779 5776 5774 5772 5771 5769 5766 5765 5764 5762 5761 5760 5759 5758 5757 5756
5833 5831 5829 5827 5825 5824 5822 5820 5818 5816 5814 5812 5810 5808 5806 5804 5802 5799 5797 5795 5792 5790 5787 5784 5781 5778 5775 5772 5769 5767 5765 5763 5762 5760 5758 5757 5756 5755 5754 5753 5751 5750 5749
5828 5826 5824 5822 5820 5818 5816 5814 5812 5810 5808 5806 5804 5802 5800 5799 5796 5793 5791 5788 5786 5783 5780 5777 5774 5771 5768 5765 5762 5760 5758 5756 5755 5753 5752 5751 5749 5748 5748 5747 5745 5744 5743
5823 5821 5819 5817 5815 5813 5811 5809 5807 5805 5803 5801 5799 5797 5795 5793 5790 5788 5785 5782 5780 5777 5774 5771 5768 5764 5761 5758 5756 5753 5751 5750 5748 5747 5745 5744 5743 5742 5741 5740 5738 5737 5736
5819 5816 5814 5812 5810 5808 5806 5803 5802 5800 5798 5795 5793 5791 5789 5787 5784 5782 5779 5776 5773 5770 5767 5764 5760 5757 5754 5752 5749 5747 5745 5743 5742 5740 5739 5737 5736 5735 5734 5732 5731 5730 5729
5814 5812 5809 5807 5805 5803 5801 5798 5796 5794 5792 5790 5788 5786 5783 5781 5779 5776 5773 5769 5766 5763 5760 5757 5754 5751 5748 5745 5743 5740 5738 5737 5735 5734 5732 5731 5730 5728 5727 5725 5724 5723 5722
5810 5807 5805 5802 5800 5798 5796 5793 5791 5788 5786 5783 5781 5779 5777 5775 5772 5770 5766 5763 5760 5757 5754 5751 5747 5744 5741 5739 5736 5734 5732 5730 5729 5727 5725 5724 5723 5721 5720 5718 5717 5717 5715
5805 5802 5800 5797 5795 5793 5790 5788 5785 5782 5780 5777 5775 5772 5770 5768 5766 5763 5760 5757 5754 5751 5747 5744 5742 5739 5736 5733 5730 5728 5726 5725 5723 5721 5719 5718 5716 5715 5713 5712 5710 5709 5708
5800 5797 5795 5792 5790 5787 5785 5782 5779 5777 5774 5772 5769 5767 5764 5762 5760 5758 5754 5751 5747 5744 5741 5739 5736 5733 5730 5727 5724 5722 5720 5718 5717 5715 5713 5711 5709 5708 5706 5705 5704 5702 5701
5795 5793 5790 5787 5785 5782 5779 5776 5774 5771 5769 5767 5764 5761 5759 5756 5754 5751 5748 5745 5742 5739 5736 5733 5730 5727 5724 5721 5719 5716 5714 5712 5710 5708 5707 5705 5703 5701 5699 5698 5696 5695 5694
5791 5788 5785 5782 5780 5776 5773 5771 5768 5766 5764 5761 5759 5756 5753 5751 5748 5746 5743 5740 5737 5734 5731 5728 5725 5722 5719 5716 5714 5711 5709 5706 5704 5702 5700 5698 5696 5694 5692 5691 5689 5688 5687
5787 5784 5781 5777 5774 5771 5768 5766 5763 5761 5758 5756 5753 5750 5748 5745 5743 5740 5738 5735 5732 5729 5727 5723 5720 5717 5714 5711 5708 5706 5703 5700 5698 5696 5694 5692 5690 5688 5686 5685 5683 5682 5680
5783 5779 5776 5773 5770 5767 5764 5761 5758 5756 5753 5750 5748 5745 5743 5740 5737 5735 5732 5730 5727 5725 5722 5718 5715 5712 5709 5706 5703 5700 5697 5695 5692 5690 5688 5686 5684 5682 5680 5678 5677 5675 5674
5778 5775 5772 5768 5765 5762 5759 5756 5753 5751 5748 5745 5743 5740 5737 5735 5732 5729 5727 5725 5722 5719 5716 5713 5710 5707 5704 5700 5697 5695 5692 5689 5687 5684 5682 5680 5678 5676 5674 5672 5670 5669 5667
5774 5771 5768 5764 5761 5757 5754 5751 5748 5745 5743 5740 5737 5735 5732 5729 5726 5724 5722 5719 5717 5714 5711 5708 5705 5701 5698 5695 5692 5689 5687 5684 5681 5678 5676 5674 5672 5669 5667 5665 5663 5662 5660
5770 5766 5763 5760 5756 5753 5749 5746 5743 5740 5738 5735 5732 5730 5727 5724 5721 5719 5716 5714 5711 5708 5705 5702 5699 5696 5693 5690 5687 5684 5681 5678 5675 5672 5670 5667 5665 5663 5661 5659 5657 5655 5653
5765 5761 5758 5755 5751 5748 5745 5741 5738 5736 5733 5730 5728 5725 5722 5719 5716 5714 5711 5708 5706 5703 5700 5697 5694 5691 5688 5685 5682 5679 5676 5673 5670 5667 5664 5661 5659 5657 5654 5652 5650 5648 5646
5759 5756 5753 5750 5747 5743 5740 5737 5734 5731 5728 5725 5723 5720 5717 5715 5712 5709 5706 5704 5701 5698 5695 5692 5689 5686 5683 5680 5677 5674 5671 5668 5665 5662 5658 5655 5653 5650 5648 5646 5644 5642 5640
5754 5751 5748 5744 5741 5739 5735 5732 5729 5726 5723 5720 5718 5715 5713 5710 5707 5705 5702 5699 5696 5693 5691 5688 5685 5681 5678 5675 5672 5669 5666 5663 5660 5656 5653 5650 5647 5645 5642 5640 5638 5635 5633
5749 5746 5743 5740 5737 5734 5731 5728 5724 5721 5718 5715 5713 5711 5708 5706 5703 5700 5698 5695 5692 5690 5687 5684 5680 5677 5674 5671 5668 5665 5661 5658 5655 5651 5648 5645 5643 5640 5637 5635 5632 5629 5626
5744 5741 5738 5735 5733 5730 5727 5724 5720 5717 5714 5712 5709 5707 5704 5702 5699 5697 5694 5692 5689 5686 5683 5680 5677 5674 5670 5667 5664 5661 5657 5654 5650 5647 5644 5641 5638 5635 5632 5629 5626 5623 5621
5739 5736 5733 5731 5729 5726 5723 5719 5716 5713 5711 5708 5706 5703 5701 5698 5696 5693 5691 5688 5686 5683 5680 5677 5674 5670 5667 5663 5660 5657 5653 5650 5647 5643 5640 5637 5634 5631 5627 5624 5621 5618 5615
5734 5731 5729 5727 5724 5722 5719 5715 5713 5710 5708 5705 5702 5700 5697 5695 5693 5690 5688 5685 5683 5680 5677 5673 5670 5667 5663 5660 5656 5653 5650 5646 5643 5640 5637 5633 5630 5627 5623 5620 5617 5614 5611
5730 5727 5725 5723 5720 5718 5715 5712 5709 5707 5705 5702 5700 5697 5695 5692 5690 5688 5685 5683 5680 5677 5674 5670 5667 5664 5660 5657 5653 5650 5647 5643 5640 5637 5634 5631 5627 5624 5620 5617 5614 5611 5608